Temp
6 7 9 10 10 11 11 11 11 11 11 11 11 11 11 11 11 10 10 10 10 11 11 11 11 11 11 11 10 10 10 10 9 9 9 9 9 9 9 9 9 9 9
4 6 7 7 8 9 10 10 10 10 11 10 10 10 10 10 10 10 10 10 10 10 10 11 11 10 10 10 10 10 10 9 9 8 8 8 9 9 9 9 9 9 9
2 3 4 5 6 6 7 8 8 8 8 8 8 9 9 9 9 9 9 9 10 10 10 10 10 10 10 10 10 10 10 9 9 9 8 8 8 8 9 9 9 9 9
1 1 2 2 3 4 4 5 6 6 7 8 8 8 8 8 8 8 9 9 9 9 9 9 10 9 9 9 9 9 9 9 9 9 8 8 8 8 8 8 8 9 9
-1 0 1 2 2 3 3 3 4 5 6 7 7 7 7 7 8 8 8 8 8 8 9 9 9 9 9 9 9 9 9 9 9 8 8 8 8 8 8 8 8 8 8
-3 -1 -0 1 1 2 3 3 3 4 4 5 6 6 7 7 7 8 8 8 8 8 8 9 8 9 9 9 9 9 9 8 8 8 8 8 8 8 8 8 9 8 7
-4 -3 -2 -1 0 1 2 3 3 4 4 4 4 4 6 7 7 7 7 7 8 8 8 8 8 8 8 9 8 8 8 8 8 8 8 8 8 8 8 8 8 7 7
-6 -4 -3 -2 -1 -0 1 2 3 3 3 3 4 5 5 6 6 7 7 7 7 7 8 8 7 8 7 8 8 8 8 7 8 8 7 8 8 8 7 8 7 7 7
-6 -5 -4 -3 -2 -1 -1 0 1 2 2 3 3 4 4 5 5 6 6 6 6 7 7 7 7 7 8 8 7 7 7 7 7 7 7 7 7 7 7 7 7 6 7
-7 -6 -5 -4 -3 -2 -2 -1 -0 1 1 2 2 3 4 4 5 6 6 6 6 6 6 7 7 7 8 8 7 7 6 6 6 6 7 7 7 7 7 6 6 7 7
-8 -7 -6 -6 -5 -4 -3 -2 -1 -1 0 1 1 1 2 3 4 5 5 6 6 5 6 6 6 7 8 7 6 6 6 6 6 6 6 6 6 6 7 6 6 6 6
-9 -8 -8 -7 -6 -5 -4 -3 -3 -2 -1 -0 -0 1 1 2 3 3 4 5 5 5 5 6 6 6 7 7 6 6 6 6 6 6 6 6 6 6 7 7 6 6 6
-10 -9 -9 -8 -7 -6 -6 -5 -4 -4 -3 -2 -2 -1 -0 0 1 2 3 3 3 3 4 4 6 6 6 7 6 6 5 5 5 5 5 6 7 6 6 6 6 6 6
-11 -11 -10 -9 -8 -8 -7 -7 -6 -5 -5 -4 -4 -3 -2 -1 -0 -0 1 2 2 2 3 4 5 5 5 6 6 5 5 5 6 5 5 6 6 6 6 6 6 6 6
-12 -12 -11 -11 -9 -9 -8 -8 -7 -8 -8 -7 -5 -5 -5 -3 -3 -2 -1 -0 1 1 2 4 4 4 4 5 5 5 5 5 5 5 5 6 6 5 6 6 6 6 6
-13 -13 -13 -12 -10 -10 -9 -8 -9 -8 -8 -7 -7 -8 -6 -6 -7 -5 -2 -1 -1 0 1 2 3 2 3 3 4 4 4 5 5 5 5 5 5 5 5 5 5 6 5
-14 -14 -14 -13 -13 -12 -11 -10 -8 -8 -9 -8 -8 -7 -8 -7 -6 -6 -5 -3 -1 -1 -1 0 1 1 2 2 3 3 3 3 4 4 5 5 5 5 5 6 6 5 5
-14 -14 -14 -14 -14 -13 -13 -12 -11 -9 -9 -8 -8 -8 -8 -7 -6 -5 -5 -5 -4 -4 -2 -1 -0 0 1 1 2 3 3 3 3 4 4 4 4 5 5 5 5 5 4
-15 -15 -15 -15 -14 -14 -13 -13 -13 -11 -10 -10 -9 -8 -8 -8 -7 -6 -5 -6 -6 -5 -5 -4 -2 -1 -0 1 1 2 2 2 3 3 3 4 4 4 4 4 4 4 4
-15 -15 -16 -16 -15 -14 -14 -13 -14 -13 -12 -11 -11 -10 -9 -8 -7 -7 -7 -7 -6 -6 -5 -5 -4 -3 -2 -0 -0 -0 0 1 2 2 3 3 3 4 4 4 4 4 4
-15 -15 -16 -16 -15 -15 -15 -14 -14 -13 -13 -13 -12 -12 -12 -11 -9 -9 -8 -8 -7 -7 -6 -6 -5 -4 -3 -2 -1 -1 -1 0 1 2 2 2 3 3 3 3 3 3 3
-16 -16 -16 -16 -16 -15 -15 -15 -15 -14 -14 -14 -13 -13 -12 -12 -11 -11 -10 -9 -9 -8 -8 -7 -6 -5 -5 -3 -2 -1 -0 -0 0 1 1 2 3 3 3 3 3 3 3
-17 -17 -17 -16 -16 -16 -16 -15 -15 -15 -15 -14 -14 -14 -13 -13 -12 -12 -11 -11 -10 -9 -9 -9 -8 -7 -7 -5 -4 -4 -2 -1 -0 1 1 2 2 3 3 2 2 2 2
-17 -17 -16 -16 -16 -16 -16 -16 -16 -15 -15 -15 -15 -14 -14 -14 -13 -13 -12 -12 -12 -11 -11 -10 -10 -9 -8 -8 -6 -5 -4 -4 -2 -1 1 1 1 1 2 1 1 2 2
-17 -17 -16 -16 -16 -16 -16 -16 -16 -16 -16 -16 -15 -15 -15 -14 -14 -14 -13 -13 -12 -12 -12 -11 -10 -10 -9 -9 -9 -7 -6 -5 -5 -3 -1 0 0 -0 1 1 1 1 1
-16 -16 -16 -16 -16 -16 -17 -17 -17 -17 -16 -16 -16 -16 -16 -15 -15 -14 -14 -13 -13 -13 -12 -12 -11 -11 -10 -10 -10 -9 -8 -7 -5 -4 -3 -2 -1 -1 -1 0 0 0 -0
Height
1501 1506 1510 1515 1519 1524 1529 1533 1537 1540 1544 1547 1550 1553 1556 1560 1563 1565 1568 1571 1573 1576 1578 1580 1582 1584 1586 1587 1589 1591 1591 1592 1593 1594 1593 1593 1593 1593 1593 1594 1594 1594 1594
1501 1502 1505 1511 1516 1519 1523 1527 1531 1534 1537 1541 1544 1547 1550 1553 1556 1558 1561 1564 1567 1569 1572 1574 1576 1578 1580 1582 1583 1584 1586 1587 1588 1588 1589 1589 1588 1589 1589 1589 1589 1589 1589
1497 1500 1506 1508 1511 1515 1519 1522 1526 1529 1532 1535 1538 1542 1545 1548 1550 1552 1556 1558 1561 1563 1565 1567 1570 1572 1573 1575 1577 1578 1580 1581 1582 1582 1583 1584 1583 1583 1583 1584 1584 1583 1584
1494 1501 1503 1506 1509 1512 1516 1519 1522 1525 1527 1530 1533 1536 1539 1542 1545 1547 1550 1552 1555 1557 1559 1561 1563 1565 1566 1569 1570 1572 1574 1575 1576 1577 1578 1579 1579 1580 1578 1579 1579 1578 1578
1494 1499 1502 1505 1509 1511 1513 1516 1518 1521 1523 1526 1528 1531 1534 1536 1539 1541 1544 1547 1549 1551 1553 1554 1556 1558 1560 1562 1564 1565 1567 1569 1570 1571 1572 1573 1573 1574 1574 1574 1573 1573 1572
1499 1498 1500 1503 1506 1508 1511 1513 1515 1517 1519 1521 1524 1526 1528 1531 1533 1536 1538 1540 1543 1545 1546 1548 1550 1552 1554 1556 1558 1560 1561 1563 1564 1564 1565 1565 1567 1567 1568 1567 1567 1566 1565
1497 1498 1501 1502 1503 1505 1507 1509 1512 1514 1516 1518 1519 1521 1523 1525 1527 1530 1532 1534 1536 1538 1540 1542 1544 1547 1549 1550 1551 1553 1555 1556 1558 1559 1558 1559 1560 1561 1562 1561 1561 1560 1559
1499 1499 1500 1501 1502 1503 1504 1506 1508 1510 1511 1513 1515 1516 1518 1520 1522 1524 1526 1527 1529 1531 1534 1536 1538 1540 1543 1545 1546 1547 1548 1548 1550 1551 1551 1552 1553 1554 1554 1554 1554 1553 1553
1499 1498 1498 1499 1500 1500 1501 1503 1504 1505 1507 1509 1510 1512 1514 1516 1517 1518 1520 1522 1523 1526 1528 1530 1532 1534 1537 1539 1539 1539 1539 1540 1542 1543 1543 1544 1545 1546 1547 1547 1546 1546 1544
1498 1498 1497 1496 1496 1497 1498 1499 1500 1501 1503 1504 1506 1508 1509 1511 1511 1512 1514 1515 1516 1519 1521 1523 1525 1527 1530 1531 1531 1531 1530 1533 1534 1534 1536 1536 1537 1538 1539 1539 1539 1538 1539
1498 1497 1496 1495 1494 1494 1495 1495 1496 1497 1498 1500 1502 1503 1504 1505 1505 1506 1507 1508 1510 1512 1514 1514 1517 1520 1521 1522 1522 1522 1522 1526 1526 1527 1527 1528 1529 1529 1530 1531 1531 1532 1532
1497 1496 1495 1494 1493 1492 1491 1492 1492 1493 1494 1495 1496 1498 1499 1499 1500 1500 1500 1502 1503 1504 1506 1509 1510 1512 1513 1513 1514 1514 1515 1518 1519 1519 1519 1520 1521 1522 1523 1524 1524 1525 1525
1497 1495 1494 1493 1491 1490 1489 1489 1490 1490 1490 1491 1492 1492 1493 1494 1495 1495 1494 1495 1496 1497 1499 1500 1502 1503 1503 1504 1505 1507 1509 1510 1511 1511 1511 1512 1514 1516 1516 1517 1517 1517 1518
1495 1494 1493 1491 1490 1489 1488 1488 1487 1486 1486 1485 1486 1486 1486 1488 1488 1487 1487 1488 1490 1490 1491 1491 1493 1494 1495 1496 1497 1499 1501 1502 1502 1503 1503 1504 1506 1507 1508 1510 1510 1510 1511
1493 1493 1491 1489 1488 1486 1486 1484 1484 1482 1482 1481 1480 1481 1481 1480 1481 1480 1480 1481 1483 1484 1483 1485 1486 1487 1487 1488 1489 1491 1493 1494 1495 1496 1496 1496 1497 1499 1500 1502 1503 1503 1503
1492 1492 1489 1486 1484 1484 1482 1481 1480 1479 1478 1477 1476 1475 1476 1474 1473 1473 1473 1475 1475 1477 1476 1478 1478 1479 1479 1481 1482 1483 1484 1485 1486 1488 1488 1489 1490 1490 1492 1492 1494 1494 1495
1489 1489 1486 1484 1482 1481 1479 1478 1475 1476 1473 1473 1472 1470 1470 1468 1468 1466 1466 1466 1468 1470 1469 1470 1471 1472 1472 1472 1473 1475 1475 1476 1478 1477 1479 1479 1481 1482 1484 1484 1485 1484 1485
1488 1486 1483 1482 1481 1478 1477 1474 1471 1471 1469 1469 1468 1466 1465 1465 1460 1460 1459 1460 1462 1462 1462 1463 1463 1464 1465 1466 1466 1466 1467 1468 1468 1469 1468 1470 1471 1473 1473 1474 1475 1476 1477
1484 1483 1479 1478 1477 1476 1473 1471 1469 1468 1466 1464 1463 1464 1461 1458 1456 1455 1455 1454 1455 1455 1455 1455 1456 1457 1456 1458 1459 1459 1459 1460 1460 1461 1461 1461 1462 1464 1464 1465 1467 1467 1468
1478 1478 1478 1477 1476 1473 1469 1470 1468 1464 1461 1461 1459 1458 1456 1455 1452 1450 1450 1449 1449 1449 1449 1450 1449 1449 1449 1449 1449 1450 1450 1451 1451 1452 1452 1453 1454 1455 1454 1456 1456 1457 1457
1475 1474 1474 1472 1470 1470 1469 1466 1463 1460 1459 1457 1456 1455 1453 1452 1448 1446 1447 1444 1443 1444 1443 1443 1442 1442 1443 1441 1441 1442 1442 1443 1443 1443 1443 1443 1444 1444 1445 1446 1446 1447 1448
1469 1469 1468 1467 1467 1467 1464 1462 1460 1459 1458 1455 1451 1451 1449 1447 1446 1443 1442 1440 1438 1437 1438 1439 1436 1435 1437 1433 1432 1433 1434 1434 1433 1433 1433 1432 1433 1434 1436 1436 1437 1437 1437
1465 1465 1464 1463 1463 1462 1461 1459 1457 1455 1453 1450 1447 1446 1445 1443 1442 1439 1438 1435 1434 1435 1436 1434 1431 1430 1433 1425 1424 1425 1423 1424 1425 1424 1422 1422 1423 1424 1425 1425 1426 1426 1426
1460 1460 1459 1459 1459 1458 1457 1455 1454 1451 1448 1447 1445 1442 1439 1438 1437 1436 1434 1432 1434 1431 1430 1429 1428 1425 1424 1420 1419 1418 1414 1416 1415 1414 1413 1413 1413 1415 1416 1415 1415 1415 1415
1455 1454 1454 1454 1454 1453 1452 1450 1448 1447 1445 1444 1441 1437 1435 1434 1434 1432 1433 1430 1429 1425 1425 1423 1421 1419 1416 1416 1414 1411 1410 1409 1407 1404 1403 1403 1403 1404 1404 1404 1405 1404 1404
1450 1450 1449 1448 1448 1447 1446 1446 1444 1442 1439 1438 1436 1435 1433 1430 1430 1429 1429 1425 1423 1421 1419 1417 1417 1414 1413 1411 1409 1407 1404 1402 1398 1396 1393 1393 1393 1394 1394 1393 1394 1393 1392
Wind_Speed
21 23 24 24 24 25 27 28 30 32 33 32 31 30 30 31 32 33 34 32 32 31 27 26 27 26 26 25 24 22 24 23 20 18 20 21 23 21 19 17 18 17 15
17 18 19 21 22 23 25 27 28 28 28 28 29 28 27 27 27 28 29 30 31 32 33 31 29 29 28 28 27 27 25 25 23 20 17 20 25 21 20 21 21 21 21
15 15 17 19 19 20 21 21 22 23 24 25 26 29 28 28 27 26 25 24 26 28 30 32 33 32 31 31 29 26 26 25 26 22 21 19 22 22 21 22 22 24 25
11 11 12 15 17 18 18 18 20 21 22 23 23 27 27 28 28 26 24 22 24 25 26 29 33 35 34 30 26 27 26 25 25 25 25 25 24 24 26 27 28 27 25
8 8 10 11 12 13 15 16 17 18 20 20 20 23 25 26 28 25 22 23 23 24 24 24 22 25 28 28 26 28 28 28 27 27 27 27 27 27 28 27 31 29 29
1 5 7 9 11 13 14 14 13 14 14 19 19 20 23 25 25 23 22 23 24 25 28 26 24 22 24 29 30 32 30 31 30 28 28 29 30 31 32 29 29 28 28
1 1 4 7 9 12 13 14 15 15 14 15 15 19 23 25 25 24 23 22 23 24 25 27 25 24 21 23 25 26 27 27 27 27 30 31 30 29 29 29 31 25 27
3 2 3 5 7 9 13 15 16 16 17 17 18 17 20 19 23 24 23 24 23 23 23 24 28 25 23 22 26 29 29 29 29 30 33 33 32 30 28 31 29 31 28
7 5 5 5 6 8 9 12 15 15 15 15 16 17 20 19 22 23 23 25 26 25 24 25 26 26 26 25 28 31 34 35 33 33 34 35 34 31 31 30 33 29 31
8 8 7 7 7 8 9 10 12 14 15 15 16 18 16 20 21 21 24 25 26 27 28 29 28 25 25 28 31 33 36 36 33 34 34 33 31 31 31 33 32 29 31
9 9 8 8 8 9 11 12 12 13 15 17 17 17 17 17 17 20 24 25 26 26 29 27 30 29 28 31 32 33 34 32 32 31 30 29 30 31 29 30 31 32 30
10 10 9 9 9 9 10 12 13 14 14 15 18 18 19 18 20 20 22 24 25 24 27 29 30 30 32 33 34 30 26 29 28 30 30 31 30 30 30 31 30 30 29
9 10 10 9 10 10 10 11 11 13 14 15 15 19 20 19 18 18 22 23 24 23 26 26 31 32 28 31 28 25 24 28 29 32 35 34 29 28 30 29 26 27 28
9 9 9 9 9 9 9 10 10 10 11 13 15 18 19 21 19 19 20 22 22 20 20 24 28 31 33 36 31 26 27 28 30 32 34 35 33 30 29 30 29 28 30
9 10 9 8 9 8 8 9 10 10 10 13 14 15 17 21 20 21 21 20 20 20 21 26 29 30 29 33 32 33 31 29 32 32 33 32 35 33 32 34 32 34 36
10 10 10 10 9 9 10 8 8 10 11 11 11 14 19 19 21 25 27 25 23 22 21 21 21 21 22 22 25 30 33 35 37 35 35 37 35 33 34 36 35 37 35
11 11 11 12 10 11 10 10 9 6 9 11 12 14 15 21 21 23 26 29 26 21 21 21 22 22 22 23 23 25 25 25 26 32 33 36 36 33 33 35 36 38 37
11 10 11 11 12 11 11 10 10 11 10 8 9 13 14 16 18 21 22 21 20 22 22 23 22 23 25 25 24 26 28 29 28 26 27 29 31 32 34 36 35 37 36
12 12 11 10 13 13 12 11 10 11 11 12 11 10 12 14 15 16 16 16 18 18 20 23 25 27 27 26 26 28 30 30 29 31 32 28 30 30 32 33 38 35 37
13 12 10 10 13 13 12 12 11 11 11 11 11 13 12 13 11 11 12 13 14 16 18 21 23 25 26 27 27 27 28 31 31 31 33 32 32 34 34 35 35 35 38
14 14 12 12 12 12 13 12 13 13 13 12 11 11 12 13 12 12 12 12 13 15 17 19 20 21 22 24 26 27 28 29 30 31 29 28 26 29 32 36 36 37 38
16 15 14 13 12 13 13 14 14 13 13 13 13 12 11 11 12 12 13 13 13 14 17 19 19 20 22 22 23 26 29 31 29 28 29 28 28 33 34 37 38 42 38
15 13 13 14 14 13 14 15 15 15 14 14 14 14 13 13 12 12 13 14 14 15 16 16 17 18 21 20 21 24 26 29 31 31 31 30 32 34 34 37 38 38 38
18 17 16 14 14 15 16 16 16 16 15 16 15 14 14 14 14 14 14 13 15 14 15 16 16 16 18 18 20 22 23 26 28 31 33 33 34 33 35 34 36 38 40
15 15 15 17 17 17 18 17 17 17 17 16 16 15 15 15 15 15 15 15 15 15 15 16 16 16 16 18 19 21 23 25 25 27 30 35 36 35 37 36 36 37 40
16 18 19 18 19 19 19 18 18 18 17 17 16 16 16 16 16 16 16 16 16 16 16 16 16 17 17 17 18 19 19 21 22 22 25 28 30 33 33 33 33 33 35
Wind_Direction
174 182 189 196 206 210 216 221 225 228 230 232 234 235 235 235 234 235 236 238 240 242 242 242 241 246 252 257 254 261 261 259 260 266 269 279 288 286 282 274 265 270 278
174 179 184 193 201 210 216 222 225 226 226 224 225 227 228 229 231 231 232 236 238 238 239 241 243 246 249 254 258 258 262 261 263 263 268 277 284 282 280 280 269 265 271
162 173 183 190 199 207 213 217 219 220 219 218 220 225 226 228 229 232 234 239 243 245 241 243 244 248 251 254 253 255 258 258 264 265 277 279 282 278 280 277 274 271 267
148 166 183 196 200 203 207 210 213 216 219 223 229 227 226 226 230 235 238 242 245 245 245 247 250 249 251 250 247 254 257 263 264 263 268 274 275 275 275 275 279 281 278
148 172 181 194 201 206 211 214 217 220 222 227 227 222 222 225 227 231 239 246 245 244 244 244 244 251 253 247 247 252 254 260 263 264 265 267 270 270 270 278 282 283 282
186 169 190 200 202 205 207 210 214 225 229 226 227 226 224 226 229 234 239 244 245 246 244 245 244 248 259 253 253 253 257 258 260 259 262 264 266 270 274 276 280 282 282
19 195 206 211 212 211 211 211 215 219 227 232 242 238 236 234 235 237 235 240 241 244 246 245 245 246 247 255 260 254 253 253 255 261 263 264 269 273 276 277 277 273 283
347 298 251 232 227 226 225 226 226 226 226 235 238 237 240 238 236 233 236 236 240 241 244 244 237 236 238 246 256 260 253 253 256 258 262 269 272 272 270 278 280 278 276
344 329 300 271 253 243 237 231 231 231 231 229 232 243 237 235 232 237 240 242 239 238 241 240 241 243 252 256 253 257 258 258 255 257 262 268 270 269 267 272 274 267 266
332 321 313 296 281 265 255 250 247 242 241 240 238 237 239 235 234 233 235 241 245 247 247 245 245 245 248 257 260 259 257 260 264 267 262 264 268 267 263 259 264 265 264
337 326 313 302 293 281 271 262 255 250 244 243 244 241 238 241 239 237 242 241 246 254 250 250 249 248 252 259 268 271 257 260 262 265 265 264 264 260 258 258 259 255 259
335 333 322 307 299 292 284 273 266 257 250 245 244 242 242 237 240 245 246 247 245 249 253 254 253 256 260 260 264 270 258 254 257 260 260 266 261 258 258 262 261 261 260
334 326 321 316 304 299 294 285 273 264 256 249 247 244 243 241 241 241 244 251 252 252 255 255 254 255 261 262 268 258 252 250 251 254 259 261 253 261 261 263 263 253 253
330 328 325 316 309 305 298 295 284 272 263 258 255 254 253 247 245 249 246 247 247 246 251 257 255 257 260 259 261 258 246 249 252 256 259 258 257 261 255 261 258 258 254
329 325 326 324 317 312 305 301 292 280 271 268 266 268 267 258 251 251 252 248 250 258 259 261 260 262 260 254 257 257 250 245 249 256 261 262 256 254 255 257 256 257 258
328 324 330 329 323 319 312 303 297 293 292 281 265 256 261 266 260 258 256 252 253 256 260 261 255 261 258 253 258 261 261 258 254 258 257 265 261 262 259 252 253 257 256
320 321 325 335 329 323 321 314 305 282 289 288 282 274 271 270 273 270 270 268 260 259 257 259 259 259 264 263 261 263 269 261 266 262 260 260 267 258 263 258 259 252 254
307 313 316 323 326 326 318 317 317 314 309 291 278 281 279 276 273 277 276 279 272 261 258 252 253 257 259 260 258 257 261 268 269 269 264 263 260 261 267 258 258 261 265
294 305 311 314 323 322 317 315 310 311 311 313 309 291 285 285 284 280 279 268 266 264 261 256 251 252 255 258 259 260 262 262 259 265 266 261 264 264 262 263 264 262 261
288 295 294 297 311 320 319 311 308 312 316 315 316 318 314 304 296 287 278 270 266 265 265 264 261 260 259 260 261 261 263 262 263 259 265 266 261 261 264 262 262 264 266
277 284 286 286 306 316 318 313 313 315 315 316 315 318 324 322 315 308 300 294 288 281 273 271 266 265 263 262 263 264 265 263 261 264 263 259 267 271 270 270 266 263 265
274 278 281 282 292 310 318 318 314 310 308 308 312 313 313 316 313 313 309 304 301 298 293 288 283 279 272 265 263 262 265 269 267 262 261 261 264 271 274 272 269 266 266
263 267 272 273 278 300 310 311 310 308 307 307 308 310 312 313 314 314 311 312 307 300 297 295 291 288 285 277 272 269 267 267 268 268 265 264 268 270 273 269 264 262 265
261 264 266 266 273 284 299 304 306 306 304 303 303 303 306 309 310 310 310 309 304 303 299 296 294 292 292 289 279 275 273 272 268 264 262 261 263 267 271 269 265 264 266
257 263 261 266 278 273 287 293 300 302 299 298 299 299 301 301 301 303 302 302 303 304 301 298 294 289 290 290 290 286 281 278 277 270 262 260 262 264 264 266 266 268 268
261 273 272 269 267 270 278 283 294 299 296 295 295 294 295 296 297 297 297 300 300 302 302 299 295 292 287 287 291 294 294 293 287 277 265 261 262 263 261 262 262 267 267